[[{"header":{"parameterUnit":"m.s-1","parameterCategory":1,"la1":30.2991,"la2":30.254,"lo1":-89.0895,"lo2":-89.0444,"dy":0.0017,"dx":0.0017,"nx":28,"ny":28,"refTime":"2025-11-13T03:00:00:Z","depth":0,"parameterNumber":2,"parameterNumberName":"U-component_of_WINDS"},"data":[0,0,0,0,0,0,0,0,0,0,0,0,0,0,0,0,0,0,0,0,0,0,0,0,0,0,0,0,0,0,0,0,0,0,0,0,0,0,0,0,0,0,0,0,0,0,0,0,0,0,0,0,0,0,0,0,0,0,1.3523,1.3525,0,1.3698,1.37,1.3702,1.3765,1.3764,1.3764,1.3763,1.3944,1.3949,1.3955,0,0,0,0,0,0,0,0,0,0,0,0,0,1.3246,1.325,1.3523,1.3525,1.3527,1.3698,1.37,1.3703,1.3765,1.3764,1.3764,1.3763,1.3942,1.3949,1.3955,0,0,0,0,0,0,0,0,0,0,0,0,0,1.3388,1.3252,1.3523,1.3579,1.3586,1.3697,1.37,1.3703,1.3765,1.3764,1.3764,1.3763,1.394,1.3948,1.3956,1.4024,0,0,1.3981,1.3984,0,0,0,0,0,0,0,0,1.338,1.3398,1.3569,1.3576,1.3583,1.3709,1.3669,1.3811,1.3766,1.3697,1.3763,1.3762,1.3867,1.3881,1.3916,1.4033,1.404,1.3981,1.3986,1.399,1.3992,0,0,0,0,0,0,0,1.337,1.3391,1.3592,1.3571,1.358,1.3597,1.3616,1.3696,1.3785,1.3703,1.3708,1.3728,1.387,1.3908,1.392,1.4043,1.3981,1.3988,1.3993,1.3996,1.4227,1.4228,0,0,0,0,0,0,1.335,1.3382,1.3587,1.3598,1.3477,1.3602,1.3624,1.3669,1.3784,1.3801,1.3729,1.373,1.3894,1.3911,1.3927,1.4015,1.399,1.3997,1.4002,1.4225,1.4227,1.4228,0,0,0,0,0,0,1.3344,1.3368,1.358,1.3491,1.352,1.3608,1.3659,1.3673,1.3711,1.3803,1.382,1.375,1.3894,1.3915,1.4,1.4022,1.4001,1.4008,1.4224,1.4226,1.4228,1.4192,0,0,0,0,0,0,1.3336,1.3365,1.3391,1.3491,1.3524,1.3649,1.366,1.3677,1.3724,1.3728,1.3828,1.3844,1.3895,1.3987,1.4008,1.4033,1.4014,1.4222,1.4225,1.4227,1.4191,1.4192,1.4193,0,0,0,0,0,1.3326,1.3374,1.3392,1.3417,1.3559,1.365,1.3669,1.3726,1.3726,1.3753,1.3813,1.384,1.4016,1.3995,1.4019,1.4047,1.4221,1.4224,1.4227,1.4191,1.4192,1.4193,0,0,0,0,0,0,1.3275,1.3388,1.341,1.3492,1.3561,1.366,1.3697,1.3726,1.3796,1.3797,1.3866,1.3888,1.3967,1.4016,1.399,1.412,1.4121,1.4128,1.4085,1.4087,1.4088,1.4075,1.4021,0,0,0,0,0,1.3273,1.3337,1.3433,1.3497,1.353,1.3607,1.3649,1.3688,1.3762,1.3792,1.3858,1.3929,1.4001,1.4047,1.4118,1.4199,1.4222,1.423,1.4231,1.4231,1.4237,1.4284,1.4289,1.4238,1.4238,1.4238,0,0,1.327,1.3341,1.3377,1.3489,1.3546,1.3612,1.3632,1.37,1.375,1.3803,1.3886,1.3937,1.4022,1.4105,1.4145,1.4148,1.4256,1.4234,1.4234,1.424,1.4288,1.4292,1.4297,1.424,1.4239,1.4239,0,0,1.3299,1.3358,1.3418,1.3476,1.3563,1.3614,1.3629,1.3725,1.376,1.3845,1.3887,1.3947,1.4069,1.4128,1.4173,1.4226,1.4254,1.4247,1.4251,1.4297,1.4301,1.4305,1.4324,1.433,1.4252,1.4252,1.4252,0,1.3285,1.3385,1.3445,1.3512,1.3561,1.3611,1.3673,1.3726,1.3832,1.3865,1.3867,1.4021,1.4081,1.4179,1.4192,1.4227,1.4247,1.4236,1.4295,1.43,1.4304,1.4324,1.4331,1.4251,1.4251,1.4251,1.4251,0,1.3364,1.3432,1.347,1.3572,1.3624,1.3688,1.3759,1.3805,1.384,1.3891,1.3978,1.4052,1.4139,1.4166,1.42,1.4269,1.4268,1.4281,1.4284,1.4307,1.4326,1.4334,1.4249,1.425,1.425,1.425,0,0,1.3364,1.3499,1.3512,1.3559,1.366,1.3714,1.3781,1.3866,1.3905,1.3977,1.4035,1.4137,1.4151,1.4203,1.4244,1.4284,1.4322,1.4293,1.4296,1.4296,1.4404,1.4393,1.44,1.4341,1.4343,1.4344,1.4397,0,1.3407,1.3527,1.3584,1.368,1.3746,1.3795,1.3854,1.3922,1.3972,1.4035,1.4091,1.4162,1.4174,1.4206,1.4248,1.4308,1.4344,1.4305,1.4397,1.4399,1.4374,1.4411,1.4399,1.4446,1.4405,1.4406,1.4407,0,1.3472,1.3544,1.3646,1.374,1.377,1.3821,1.3904,1.3964,1.4043,1.4077,1.4135,1.4175,1.4248,1.4245,1.4347,1.4319,1.436,1.4396,1.4399,1.441,1.4404,1.4423,1.4462,1.4469,1.4419,1.4418,1.4417,0,1.3463,1.3585,1.3663,1.3701,1.3813,1.3848,1.3896,1.3974,1.4022,1.4096,1.4128,1.4208,1.4252,1.4314,1.4375,1.4367,1.4472,1.4474,1.4503,1.4501,1.4522,1.452,1.4569,1.4548,1.4548,1.4548,1.4548,0,1.3504,1.3565,1.366,1.3708,1.3778,1.3843,1.3911,1.3963,1.4033,1.4092,1.414,1.4195,1.4272,1.4337,1.4385,1.4463,1.4482,1.4512,1.4524,1.4508,1.4504,1.4536,1.4534,1.455,1.4549,1.4549,1.4549,0,1.3506,1.3572,1.366,1.3758,1.3785,1.3832,1.3917,1.3966,1.4018,1.4093,1.4114,1.4197,1.4276,1.4343,1.4447,1.4479,1.456,1.4574,1.4533,1.4539,1.4564,1.4561,1.4635,1.4648,1.4618,1.4618,1.4618,0,1.3528,1.3576,1.368,1.3723,1.3771,1.3839,1.3889,1.3955,1.4005,1.41,1.4137,1.4219,1.4288,1.4412,1.4482,1.4562,1.4579,1.4599,1.4591,1.4573,1.458,1.4576,1.4582,1.4599,1.4599,1.4599,1.4599,0,1.356,1.3591,1.366,1.3741,1.3799,1.3866,1.3934,1.3967,1.4046,1.41,1.4181,1.4235,1.4341,1.4422,1.451,1.456,1.4594,1.4601,1.4613,1.4596,1.4571,1.4585,1.4534,1.4599,1.4599,1.4599,1.4599,1.4599,1.3573,1.3619,1.3699,1.3775,1.3834,1.3897,1.3948,1.4007,1.4076,1.4167,1.4203,1.4286,1.4365,1.4486,1.4537,1.4603,1.4608,1.4624,1.4628,1.4631,1.4629,1.456,1.462,1.462,1.462,1.462,1.462,0,1.3609,1.3663,1.3732,1.3827,1.3887,1.3913,1.399,1.4038,1.4111,1.4182,1.4249,1.4343,1.4422,1.4499,1.4582,1.4621,1.4638,1.464,1.4638,1.465,1.4619,1.4602,1.4625,1.4625,1.4625,1.4625,1.4625,1.4625,1.3634,1.3712,1.3753,1.3861,1.3916,1.3998,1.404,1.4099,1.4156,1.4258,1.4324,1.4374,1.4447,1.4537,1.4611,1.4632,1.466,1.4658,1.4683,1.4653,1.4652,1.465,1.4634,1.4664,1.4664,1.4708,1.4708,1.4709]},{"header":{"parameterUnit":"m.s-1","parameterCategory":1,"la1":30.2991,"la2":30.254,"lo1":-89.0895,"lo2":-89.0444,"dy":0.0017,"dx":0.0017,"nx":28,"ny":28,"refTime":"2025-11-13T03:00:00:Z","depth":0,"parameterNumber":3,"parameterNumberName":"V-component_of_WINDS"},"data":[0,0,0,0,0,0,0,0,0,0,0,0,0,0,0,0,0,0,0,0,0,0,0,0,0,0,0,0,0,0,0,0,0,0,0,0,0,0,0,0,0,0,0,0,0,0,0,0,0,0,0,0,0,0,0,0,0,0,2.8148,2.8148,0,2.8105,2.8105,2.8104,2.8084,2.8084,2.8084,2.8084,2.8034,2.8032,2.8031,0,0,0,0,0,0,0,0,0,0,0,0,0,2.8208,2.8207,2.8148,2.8148,2.8147,2.8105,2.8105,2.8104,2.8084,2.8084,2.8084,2.8084,2.8034,2.8032,2.8031,0,0,0,0,0,0,0,0,0,0,0,0,0,2.8175,2.8207,2.8148,2.8132,2.8131,2.8105,2.8104,2.8104,2.8084,2.8084,2.8084,2.8084,2.8035,2.8033,2.8031,2.8016,0,0,2.8024,2.8023,0,0,0,0,0,0,0,0,2.8177,2.8173,2.8135,2.8134,2.8131,2.81,2.8107,2.8074,2.8084,2.8102,2.8084,2.8084,2.8055,2.8051,2.8043,2.8013,2.8011,2.8024,2.8023,2.8022,2.8021,0,0,0,0,0,0,0,2.8179,2.8175,2.8131,2.8135,2.8132,2.8126,2.8121,2.8101,2.8078,2.81,2.8099,2.8094,2.8054,2.8045,2.8042,2.8011,2.8024,2.8022,2.8021,2.802,2.7966,2.7966,0,0,0,0,0,0,2.8185,2.8177,2.8132,2.813,2.8155,2.8124,2.8119,2.811,2.8079,2.8074,2.8094,2.8093,2.8049,2.8044,2.804,2.802,2.8022,2.802,2.8019,2.7966,2.7966,2.7966,0,0,0,0,0,0,2.8187,2.8181,2.8134,2.8153,2.8146,2.8123,2.8113,2.8109,2.81,2.8074,2.8069,2.8089,2.8049,2.8043,2.8022,2.8018,2.8019,2.8017,2.7967,2.7966,2.7966,2.7982,0,0,0,0,0,0,2.8188,2.8182,2.8178,2.8153,2.8146,2.8119,2.8113,2.8108,2.8097,2.8096,2.8068,2.8064,2.8048,2.8026,2.802,2.8016,2.8015,2.7967,2.7966,2.7966,2.7982,2.7982,2.7983,0,0,0,0,0,2.8191,2.8182,2.8178,2.8172,2.814,2.8119,2.8115,2.8099,2.8097,2.8092,2.8075,2.8065,2.802,2.8024,2.8017,2.8012,2.7967,2.7967,2.7966,2.7981,2.7982,2.7983,0,0,0,0,0,0,2.8205,2.8179,2.8173,2.8157,2.8141,2.8116,2.8109,2.81,2.8082,2.8081,2.806,2.8054,2.8036,2.8021,2.8026,2.7996,2.7992,2.7991,2.8006,2.8006,2.8007,2.8011,2.8014,0,0,0,0,0,2.8207,2.8194,2.8171,2.8159,2.8151,2.8132,2.8122,2.8111,2.8093,2.8085,2.8066,2.8047,2.8028,2.8017,2.7998,2.7979,2.7973,2.7973,2.7973,2.7974,2.7972,2.7961,2.7961,2.7965,2.7965,2.7965,0,0,2.8209,2.8194,2.8186,2.8162,2.8148,2.8133,2.8126,2.8111,2.8099,2.8082,2.8062,2.8048,2.8025,2.8005,2.7995,2.7993,2.797,2.7973,2.7974,2.7972,2.7961,2.796,2.796,2.7964,2.7965,2.7965,0,0,2.8207,2.8194,2.8183,2.817,2.8149,2.8136,2.8134,2.811,2.8101,2.8081,2.8068,2.8052,2.8021,2.8005,2.7993,2.7985,2.7975,2.7979,2.7982,2.7971,2.7971,2.7971,2.7967,2.7966,2.7978,2.7978,2.7978,0,2.8212,2.8192,2.8178,2.8164,2.8153,2.8139,2.8126,2.8113,2.8087,2.8079,2.8077,2.8038,2.8021,2.7997,2.7996,2.7986,2.7981,2.7982,2.7973,2.7972,2.7971,2.7968,2.7967,2.7979,2.7979,2.7979,2.7979,0,2.82,2.8186,2.8179,2.8157,2.8145,2.8131,2.8113,2.8103,2.8093,2.808,2.8059,2.8039,2.8016,2.8009,2.7999,2.7984,2.7983,2.7977,2.7973,2.7972,2.7968,2.7967,2.798,2.798,2.7979,2.7979,0,0,2.8205,2.8176,2.8173,2.8163,2.814,2.8128,2.8113,2.8093,2.8084,2.8066,2.8053,2.8027,2.8022,2.8008,2.7995,2.7986,2.798,2.7981,2.798,2.7981,2.7962,2.7967,2.7966,2.7973,2.7973,2.7973,2.7964,0,2.8199,2.8176,2.8162,2.8143,2.8129,2.8116,2.8103,2.8086,2.8073,2.8058,2.8042,2.8025,2.8019,2.8011,2.8001,2.7983,2.7976,2.7984,2.7959,2.7958,2.7966,2.7964,2.7968,2.7961,2.7962,2.7962,2.7962,0,2.819,2.8175,2.8155,2.8134,2.8127,2.8116,2.8097,2.8083,2.8063,2.8054,2.8039,2.8027,2.801,2.8007,2.7982,2.7987,2.7976,2.7966,2.7965,2.7962,2.796,2.796,2.7958,2.7957,2.796,2.796,2.796,0,2.8195,2.817,2.8155,2.8146,2.8121,2.8114,2.8102,2.8083,2.8072,2.8054,2.8046,2.8025,2.8014,2.7997,2.7979,2.7979,2.7955,2.7951,2.7946,2.7946,2.7941,2.7942,2.7937,2.7935,2.7935,2.7935,2.7935,0,2.8191,2.8179,2.8157,2.8148,2.8134,2.8118,2.8104,2.8091,2.8074,2.806,2.8046,2.8033,2.801,2.7994,2.7979,2.796,2.7955,2.7946,2.7942,2.7948,2.7949,2.794,2.794,2.7934,2.7934,2.7934,2.7934,0,2.8195,2.818,2.8163,2.8141,2.8135,2.8125,2.8105,2.8095,2.8081,2.8064,2.8059,2.8037,2.8018,2.7998,2.7971,2.7961,2.7942,2.7937,2.7949,2.7947,2.7943,2.7943,2.7932,2.793,2.7929,2.7929,2.7929,0,2.8192,2.8184,2.8161,2.8152,2.8142,2.8127,2.8117,2.81,2.8088,2.8065,2.8057,2.8037,2.802,2.7989,2.7969,2.7948,2.7942,2.7939,2.7938,2.7944,2.7941,2.7942,2.7941,2.794,2.794,2.794,2.794,0,2.819,2.8184,2.8169,2.8153,2.8141,2.8126,2.8111,2.8104,2.8084,2.8071,2.8052,2.8039,2.8012,2.7992,2.7969,2.7954,2.7943,2.7941,2.7938,2.7943,2.7951,2.7946,2.7951,2.7941,2.7941,2.7941,2.7941,2.7941,2.8191,2.8182,2.8166,2.815,2.8137,2.8124,2.8113,2.8099,2.8083,2.8062,2.8052,2.8033,2.8012,2.798,2.7966,2.7949,2.7946,2.7943,2.7942,2.7941,2.7942,2.7954,2.7945,2.7945,2.7945,2.7945,2.7945,0,2.8188,2.8176,2.8163,2.8143,2.813,2.8124,2.8106,2.8096,2.808,2.8062,2.8047,2.8024,2.8004,2.7983,2.7962,2.7952,2.7946,2.7947,2.7947,2.7944,2.7946,2.7951,2.7952,2.7952,2.7952,2.7952,2.7952,2.7952,2.8185,2.817,2.8161,2.8139,2.8128,2.811,2.8101,2.8088,2.8074,2.8051,2.8035,2.8022,2.8003,2.798,2.7961,2.7955,2.7947,2.7949,2.7942,2.7944,2.7944,2.7943,2.7947,2.7948,2.7948,2.7941,2.7941,2.7941]}]]